WD8LSN Weather Reports


time (UTC)temp
C
wind
direction
speed
KPH
gust
KPH
rain 1hr
cm
rain 24hr
cm
rain mn
cm
humidity
%
barometer
mb
20260903073101 22 0 0.0 0.0 0.00 0.00 0.00 91 1018.8
20260903071554 23 0 0.0 3.2 0.00 0.00 0.00 91 1018.5
20260903070050 23 140 1.6 4.8 0.00 0.00 0.00 91 1018.4
20260903064559 23 0 0.0 1.6 0.00 0.00 0.00 91 1018.5
20260903063057 23 0 0.0 0.0 0.00 0.00 0.00 91 1018.5
20260903061600 23 0 0.0 3.2 0.00 0.00 0.00 91 1018.6
20260903060122 23 0 0.0 0.0 0.00 0.00 0.00 91 1018.6
20260903054557 23 0 0.0 3.2 0.00 0.00 0.00 91 1018.5
20260903053059 23 146 0.0 3.2 0.00 0.00 0.00 90 1018.4
20260903051607 24 0 0.0 3.2 0.00 0.00 0.00 90 1018.4
20260903050100 24 144 0.0 1.6 0.00 0.00 0.00 90 1018.5
20260903044557 24 159 0.0 3.2 0.00 0.00 0.00 89 1018.4
20260903043104 25 0 0.0 3.2 0.00 0.00 0.00 89 1018.2
20260903041559 25 0 0.0 0.0 0.00 0.00 0.00 88 1018.1
20260903034602 25 0 0.0 0.0 0.00 0.00 0.00 86 1018.3
20260903033102 26 0 0.0 0.0 0.00 0.00 0.00 84 1018.4
20260903031559 26 0 0.0 0.0 0.00 0.00 0.00 84 1018.5
20260903024558 26 0 0.0 1.6 0.00 0.00 0.00 81 1018.6
20260903023106 26 234 0.0 0.0 0.00 0.00 0.00 80 1018.7
20260903021559 27 0 0.0 1.6 0.00 0.00 0.00 78 1018.7
20260903020056 27 0 0.0 0.0 0.00 0.00 0.00 78 1018.7
20260903014618 27 0 0.0 0.0 0.00 0.00 0.00 76 1018.6
20260903013106 28 0 0.0 0.0 0.00 0.00 0.00 75 1018.6
20260903011609 28 0 0.0 3.2 0.00 0.00 0.00 74 1018.5
20260903010105 28 0 0.0 0.0 0.00 0.00 0.00 72 1018.3
20260903004600 29 0 0.0 1.6 0.00 0.00 0.00 71 1018.2
20260903003059 29 0 0.0 3.2 0.00 0.00 0.00 70 1017.9
20260903001555 30 0 0.0 3.2 0.00 0.00 0.00 68 1017.9
20260903000107 31 0 0.0 3.2 0.00 0.00 0.00 65 1018.0
20260902234602 32 85 0.0 3.2 0.00 0.00 0.00 62 1017.9
20260902233059 33 0 0.0 1.6 0.00 0.00 0.00 60 1018.0
20260902231602 33 233 0.0 3.2 0.00 0.00 0.00 59 1017.9
20260902230106 34 82 0.0 6.4 0.00 0.00 0.00 60 1018.0
20260902224607 34 290 1.6 4.8 0.00 0.00 0.00 59 1018.1
20260902223110 33 189 0.0 4.8 0.00 0.00 0.00 60 1018.0
20260902221559 33 233 1.6 9.7 0.00 0.00 0.00 59 1018.1
20260902220105 34 245 0.0 6.4 0.00 0.00 0.00 58 1018.1
20260902214607 33 297 3.2 9.7 0.00 0.00 0.00 57 1018.2
20260902213057 34 238 3.2 9.7 0.00 0.00 0.00 57 1018.2
20260902211557 34 293 4.8 9.7 0.00 0.00 0.00 57 1018.2
20260902210059 33 234 6.4 12.9 0.00 0.00 0.00 57 1018.4
20260902204600 34 105 3.2 9.7 0.00 0.00 0.00 59 1018.2
20260902203109 35 302 1.6 11.3 0.00 0.00 0.00 60 1018.3
20260902201601 34 309 3.2 8.0 0.00 0.00 0.00 58 1018.5
20260902200059 34 226 3.2 12.9 0.00 0.00 0.00 57 1018.6
20260902194558 33 188 4.8 16.1 0.00 0.00 0.00 61 1018.8
20260902193105 34 293 1.6 9.7 0.00 0.00 0.00 60 1019.1
20260902191559 33 252 4.8 12.9 0.00 0.00 0.00 59 1019.2
20260902184554 33 334 3.2 9.7 0.00 0.00 0.00 62 1019.5
20260902183110 33 269 4.8 11.3 0.00 0.00 0.00 61 1019.7
20260902181558 33 300 1.6 11.3 0.00 0.00 0.00 63 1019.7
20260902180055 33 295 3.2 9.7 0.00 0.00 0.00 61 1019.8
20260902174603 32 321 6.4 12.9 0.00 0.00 0.00 64 1019.9
20260902173134 32 270 4.8 11.3 0.00 0.00 0.00 63 1020.0
20260902171619 32 236 1.6 12.9 0.00 0.00 0.00 64 1020.2
20260902170101 32 313 4.8 8.0 0.00 0.00 0.00 67 1020.5
20260902164601 32 273 1.6 8.0 0.00 0.00 0.00 67 1020.5
20260902163055 31 315 4.8 8.0 0.00 0.00 0.00 68 1020.9
20260902161606 31 269 3.2 9.7 0.00 0.00 0.00 70 1020.9
20260902160105 31 297 1.6 6.4 0.00 0.00 0.00 71 1021.0
20260902154557 31 314 3.2 8.0 0.00 0.00 0.00 72 1021.0
20260902153103 30 255 0.0 6.4 0.00 0.00 0.00 73 1021.1
20260902151556 30 297 1.6 4.8 0.00 0.00 0.00 75 1021.1
20260902150058 29 230 1.6 6.4 0.00 0.00 0.00 78 1021.1
20260902144555 28 292 1.6 8.0 0.00 0.00 0.00 80 1021.2
20260902143058 28 0 0.0 3.2 0.00 0.00 0.00 80 1021.2
20260902141608 28 286 0.0 3.2 0.00 0.00 0.00 79 1021.1
20260902140054 28 0 0.0 3.2 0.00 0.00 0.00 81 1020.9
20260902134600 27 167 0.0 4.8 0.00 0.00 0.00 84 1020.8
20260902133101 26 0 0.0 4.8 0.00 0.00 0.00 85 1020.9
20260902131603 25 0 1.6 6.4 0.00 0.00 0.00 88 1020.7
20260902124608 24 155 1.6 9.7 0.00 0.00 0.00 89 1020.6
20260902123152 23 189 3.2 6.4 0.00 0.00 0.00 89 1020.8
20260902121558 23 165 1.6 4.8 0.00 0.00 0.00 90 1020.7
20260902120057 22 177 1.6 6.4 0.00 0.00 0.00 91 1020.5
20260902114556 22 0 1.6 3.2 0.00 0.00 0.00 92 1020.4
20260902113102 21 136 0.0 1.6 0.00 0.00 0.00 92 1020.2
20260902111600 21 136 0.0 1.6 0.00 0.00 0.00 93 1020.2
20260902110108 21 135 0.0 1.6 0.00 0.00 0.00 93 1020.3
20260902104556 21 147 0.0 1.6 0.00 0.00 0.00 93 1020.1
20260902103055 21 0 0.0 1.6 0.00 0.00 0.00 92 1020.1
20260902101558 21 147 0.0 1.6 0.00 0.00 0.00 92 1020.0
20260902100100 21 0 0.0 0.0 0.00 0.00 0.00 92 1020.0
20260902094558 21 0 0.0 1.6 0.00 0.00 0.00 92 1020.0
20260902093059 21 153 0.0 1.6 0.00 0.00 0.00 92 1020.0
20260902091612 21 0 0.0 0.0 0.00 0.00 0.00 92 1020.0
20260902090111 21 0 0.0 1.6 0.00 0.00 0.00 92 1019.8
20260902084552 22 153 0.0 1.6 0.00 0.00 0.00 92 1019.7
20260902083058 22 0 0.0 3.2 0.00 0.00 0.00 92 1019.6
20260902081555 22 164 0.0 0.0 0.00 0.00 0.00 92 1019.5
20260902080059 22 0 0.0 3.2 0.00 0.00 0.00 92 1019.4
20260902074559 22 162 0.0 1.6 0.00 0.00 0.00 92 1019.3